GFSFLT2_prec_radar_204.txt.gz
Reflectivity
-20 -20 -20 -20 -20 -20 -20 -20 -20 -20 -20 -20 -20 -19 -20 -20 -20 -20 -20 -20 -20 -20 -20 -20 -20 -20 -20 -20 -20 -20 -20 -20
-20 -20 -20 -20 -20 -20 -20 -20 -20 -20 -20 -20 -18 8 -20 -20 -20 -20 -20 -20 -20 -20 -20 -20 -20 -20 -20 -20 -20 -20 -20 -20
-20 -20 -20 -20 -20 -20 -20 -20 -20 8 12 -19 6 -20 -20 -20 -20 -20 -20 -20 -20 -20 -20 -20 -20 -20 -20 -20 -20 -20 -20 -20
-20 -20 -20 -20 -20 -20 -20 -20 -20 -2 -10 -20 -20 -20 -20 -20 -20 -20 -20 -20 -20 -20 -20 -20 -20 -20 -20 -20 -20 -20 -20 -20
-20 -20 -20 -20 -20 -20 -20 -20 -13 -12 -15 -20 -20 -20 -20 -20 -20 -20 -20 -20 -20 -20 -20 -20 -20 -20 -20 -20 -20 -20 -20 -20
-20 -20 -20 -20 -20 -20 -20 -20 -20 -2 -18 -20 -20 -20 -20 -20 -20 -20 -20 -20 -20 -20 -20 -20 -20 -20 -20 -20 -20 -20 -20 -20
-20 -20 -20 -20 -20 -20 -20 -20 -17 1 -9 -20 -20 -20 -20 -20 -20 -20 -20 -20 -20 -20 -20 -20 -20 -20 -20 -20 -20 -20 -20 -20
-20 -16 -20 -20 -20 -20 2 -10 -16 9 -18 -20 -20 -20 -20 -20 -20 -20 -20 -20 -20 -20 -20 -20 -20 -20 -20 -20 -20 -20 -20 -20
-20 -20 -20 -20 -20 -20 11 9 3 4 -20 -20 -20 -20 -20 -20 -20 -20 -20 -20 -20 -20 -20 -20 -20 -20 -20 -20 -20 -20 -20 -20
-20 5 -20 -20 -20 -20 -11 10 7 12 -17 -20 -20 -20 -20 -20 -20 -20 -20 -20 -20 -20 -20 -20 -20 -20 -20 -20 -20 -20 -20 -20
-20 -6 -20 -20 -20 -20 -14 -16 -18 9 -18 -20 -20 -20 -20 -20 -20 -20 -20 -20 -20 -20 -20 -20 -20 -20 -20 -20 -20 -20 -20 -20
-20 -20 -20 -20 -20 -20 -14 8 8 -12 19 10 3 -16 -20 -20 -20 -20 -20 -20 -20 -20 -20 -20 -20 -20 -20 -20 -20 -20 -20 -20
-20 -20 -20 -20 -20 -20 -20 -20 -5 -7 -20 27 -14 -20 -20 -20 -20 -20 -20 -20 -20 -20 -20 -20 -20 -20 -20 -20 -20 -20 -20 -20
-20 -20 -20 -20 -20 -20 -20 -20 -19 7 -17 30 26 15 -9 -18 -20 -20 -16 -20 -20 -20 -20 -20 -20 -20 -20 -20 -20 -20 -20 -20
-20 -20 -20 -20 -20 -20 -20 -20 -4 -4 -8 13 15 27 17 15 -17 -20 -20 -20 -20 -20 -20 -20 -20 -20 -20 -20 -20 -20 -20 -20
-20 -20 -20 -7 28 -13 -20 -20 -11 -1 2 17 22 21 23 3 10 -0 -7 -20 -20 -20 -20 -20 -20 -20 -20 -20 -20 -17 -20 -20
-20 -3 29 31 29 -11 5 22 -11 -19 -18 -9 13 11 24 24 -15 8 -17 -20 -20 -18 -20 -20 -20 -20 -20 -20 -20 -20 -17 -20
17 7 29 28 29 27 23 1 29 -0 15 9 1 -2 20 18 13 2 -9 -11 -20 -19 -20 -20 -17 -17 -20 -20 -20 -20 -20 -20
29 30 15 30 27 25 20 24 24 14 17 5 0 10 -7 12 15 -1 14 17 14 -8 -19 7 1 -7 -10 -17 -14 -20 -20 -20
19 27 31 21 28 28 25 21 44 30 23 18 -4 9 -13 4 18 16 -0 20 26 28 26 2 -18 -8 13 -0 -6 -9 -5 -19

GFSFLT2_prec_radar_207.txt.gz
Reflectivity
-20 -20 -20 -20 -20 -20 -20 -20 -20 -20 -20 -20 -20 -20 -20 -20 -20 -20 -20 -20 -20 -20 -20 -20 -20 -20 -20 -20 -20 -20 -20 -20
-20 -20 -20 -20 -20 -20 -20 -20 -20 -20 -20 -20 -20 -20 -20 -20 -20 -20 -20 -20 -20 -20 -20 -20 -20 -20 -20 -20 -20 -20 -20 -20
-20 -20 -20 -20 -20 -20 -20 -20 -20 -20 -20 -20 -20 -15 -20 -20 -20 -20 -20 -20 -20 -20 -20 -20 -20 -20 -20 -20 -20 -20 -20 -20
-20 -20 -20 -20 -20 -20 -20 -20 -20 -20 -20 -20 -16 -12 -20 -20 -20 -20 -20 -20 -20 -20 -20 -20 -20 -20 -20 -20 -20 -20 -20 -20
-20 -20 -20 -20 -20 -20 -20 -20 -20 -20 -20 -20 -20 -20 -20 -20 -20 -20 -20 -20 -20 -20 -20 -20 -20 -20 -20 -20 -20 -20 -20 -20
-20 -20 -20 -20 -20 -20 -20 -20 -20 -20 -20 -20 -20 -20 -20 -20 -20 -20 -20 -20 -20 -20 -20 -20 -20 -20 -20 -20 -20 -20 -20 -20
-20 -20 -20 -20 -20 -20 -20 -20 -20 -20 -20 -16 -20 -20 -20 -20 -20 -20 -20 -20 -20 -20 -20 -20 -20 -20 -20 -20 -20 -20 -20 -20
-20 -20 -20 -20 -20 -20 -20 -20 -20 -20 -20 -8 -20 -20 -20 -20 -20 -20 -20 -20 -20 -20 -20 -20 -20 -20 -20 -20 -20 -20 -20 -20
-20 -20 -20 -20 -20 -20 -20 -17 -17 -20 -13 16 6 -20 -20 -20 -20 -20 -20 -20 -20 -20 -20 -20 -20 -20 -20 -20 -20 -20 -20 -20
-20 -20 -20 -20 -20 -20 -20 -20 -20 6 -8 -5 5 -9 -20 -20 -20 -20 -20 -20 -20 -20 -20 -20 -20 -20 -20 -20 -20 -20 -20 -20
-20 -20 -20 -20 -20 0 -13 3 -20 -20 -20 -20 -20 -8 13 -20 -20 -8 -20 -20 -20 -20 -20 -20 -20 -20 -20 -20 -20 -20 -20 -20
-20 -20 -20 -20 -19 -9 -16 -20 -20 -20 -20 -16 -13 4 25 22 -20 -20 -20 -20 -20 -20 -20 -20 -20 -20 -20 -20 -20 -20 -20 -20
-20 -20 -18 -20 -8 -20 -20 -20 -20 -20 -20 -20 10 -4 22 7 2 17 -4 -20 -20 -20 -20 -20 -20 -20 -20 -20 -20 -20 -20 -20
-20 -20 8 0 -10 -1 -20 -9 16 24 -20 -20 -7 -15 -11 10 3 18 -18 -20 -20 -20 -20 -20 -20 -20 -20 -20 -20 -20 -20 -20
-20 -20 -20 21 21 29 23 7 -1 -3 -4 -10 -20 20 5 25 24 23 21 17 -17 -17 -20 -20 -20 -20 -20 -20 -20 -20 -20 -20
9 9 -4 28 20 -9 6 10 -15 -20 -20 -20 -20 21 25 26 18 8 -15 9 -20 -17 -18 -20 -20 -20 -20 -20 -20 -20 -20 -20
-20 16 28 25 25 18 11 -15 25 24 -6 -12 -20 10 13 14 22 18 25 21 20 16 -12 -20 -13 -20 -20 -20 -20 -20 -20 -20
-3 1 8 27 9 29 28 27 27 28 23 25 -9 10 -1 21 21 13 17 9 3 25 11 -3 1 -20 -20 -20 -20 -20 -20 -20
-20 -16 8 -5 28 26 23 20 6 27 30 36 18 -7 7 6 21 24 18 21 25 -1 -9 -20 -18 -19 -20 -20 -20 -20 -20 -20
-20 -20 -20 14 17 33 32 36 33 33 47 41 26 2 23 18 15 7 17 16 27 26 30 11 4 19 -12 -20 -20 -7 12 -12

GFSFLT2_prec_radar_210.txt.gz
Reflectivity
-20 -20 -20 -20 -20 -20 -20 -20 -20 -20 -20 -20 -20 16 -19 -20 -20 -20 4 -20 -20 -20 -20 -20 -20 -20 -20 -20 -20 -20 -20 -20
-20 -20 -14 -20 -20 -20 -20 -20 -20 -20 -20 -20 -16 1 -20 -20 -15 11 -20 -20 -20 -20 -20 -20 -20 -20 -20 -20 -20 -20 -20 -20
-20 -20 -20 -20 -20 -20 -20 -20 -20 -20 -20 -20 -20 -20 -20 -20 -20 -20 -20 -20 -20 -20 -20 -20 -20 -20 -20 -20 -20 -20 -20 -20
-20 -20 -20 -20 -20 -20 -20 -20 -20 -20 -20 -20 -20 -20 -20 -20 -20 -20 -20 -20 -20 -20 -20 -20 -20 -20 -20 -20 -20 -20 -20 -20
-20 -20 -20 -20 -20 -20 -20 -20 -20 -14 -20 -20 -20 -20 -18 -20 -20 -20 -20 -20 -20 -20 -20 -20 -20 -20 -20 -20 -20 -20 -20 -20
-20 -20 -20 -20 -20 -20 -20 -20 -20 -20 -20 -20 -20 -20 -18 -20 -20 -20 -20 -20 -20 -20 -20 -20 -20 -20 -20 -20 -20 -20 -20 -20
-20 -20 -20 -20 -20 -20 -20 -20 -20 -20 -20 -20 -20 -20 -20 -20 -20 -20 -20 -20 -20 -20 -20 -20 -20 -20 -20 -20 -20 -20 -20 -20
-20 -20 -20 -20 -20 -20 -20 -20 -13 -20 -20 -17 -20 -20 -20 -20 -20 -20 -20 -20 -20 -20 -20 -20 -20 -20 -20 -20 -20 -20 -20 -20
-20 -20 -20 -20 -20 -20 -20 -20 -20 -20 -20 -4 -2 -1 -20 -20 -20 -20 -20 -20 -20 -20 -20 -20 -20 -20 -20 -20 -20 -20 -20 -20
-20 -20 -20 -20 -10 -20 -20 -20 -20 -20 -20 -17 -8 19 -16 -17 -20 -20 -20 -20 -20 -20 -20 -20 -20 -20 -20 -20 -20 -20 -20 -20
-20 -20 -20 -20 -20 3 20 -11 -20 -20 -18 -20 18 20 15 -20 -20 9 -20 -20 -18 -20 -20 -20 -20 -20 -20 -20 -20 -20 -20 -20
-20 -20 -20 -20 -19 -20 12 9 -17 21 -0 -20 -15 26 9 -6 -20 -20 -20 -19 15 11 -20 -20 -20 -20 -20 -20 -20 -20 -20 -20
-20 -20 -20 -20 -20 -14 11 11 25 21 -6 17 24 -20 -20 2 23 8 18 2 27 24 -12 -20 -20 -20 -20 -20 -20 -20 -20 -20
-3 24 11 2 -12 14 8 31 -17 21 24 -11 -10 -20 -19 -20 -16 -3 31 25 2 -4 -9 -20 -20 -20 -20 -20 -20 -20 -20 -20
-20 -18 13 23 21 25 23 26 24 -4 -2 -5 -20 6 27 -12 -20 -15 -20 -7 -20 -20 -1 13 -4 5 -20 -20 -20 -20 -20 -20
-20 -20 -20 -15 13 27 16 20 8 30 -15 -14 -5 19 28 19 -19 23 -12 -20 -18 -2 -2 29 5 -20 -20 -20 -20 -20 -20 -20
-20 -20 -20 -20 -20 1 28 21 15 13 29 27 12 5 12 22 16 3 16 18 -4 5 -20 -19 -11 -20 -19 -19 -20 -20 -20 -20
-20 -20 -20 -20 -20 -20 -13 12 37 25 30 16 19 22 26 22 5 15 18 23 13 5 -20 -7 25 -6 1 2 -8 -14 -20 -20
-20 -20 -20 -20 -20 -20 -20 -20 21 20 32 34 31 20 15 25 39 30 36 18 27 22 -10 -8 -15 -7 14 -7 -19 -19 -20 -20
-20 -20 -20 -20 -20 -20 -20 -20 -18 39 40 28 14 35 24 36 33 43 41 38 47 28 33 26 9 11 -14 -20 -20 -20 -20 -20

GFSFLT2_prec_radar_216.txt.gz
Reflectivity
-20 -11 -2 -2 -20 -20 -20 -20 -20 -20 -20 -20 -20 -20 -20 7 -20 -15 -18 -14 -20 -20 -6 -5 -16 -20 -20 -20 -20 -20 -20 -20
-20 -1 -9 1 -19 -20 -20 -20 -20 -20 -20 -20 -20 -20 0 11 -20 -20 -20 -20 -20 -3 -4 -20 -20 -20 -20 -20 -20 -20 -20 -20
-20 -20 -15 -10 -10 -10 -20 -20 -20 -20 -20 -20 -20 -20 -2 1 -11 -15 -0 -20 -20 -20 -20 -20 -20 -20 -20 -20 -20 -20 -20 -20
-20 -20 -20 -9 -20 -16 -16 -20 -20 -20 -20 -20 -20 -19 -4 -3 4 -17 6 -20 -20 -20 -20 -20 -20 -20 -20 -20 -20 -20 -20 -20
-20 -20 -20 -20 -20 -20 -20 -20 -20 -20 -20 -20 -20 -18 4 2 1 -1 1 -20 -20 -20 -20 -20 -20 -20 -20 -20 -20 -20 -20 -20
-20 -20 -20 -16 -20 -13 -20 -20 -20 -20 0 3 -15 -1 10 5 5 2 0 -20 -20 -20 -20 -20 -20 -20 -20 -20 -20 -20 -20 -20
-20 -20 -20 -20 -20 -20 -20 -20 -20 -20 -17 1 7 7 20 -10 -7 -19 -20 -20 -20 -20 -20 -20 -20 -20 -20 -20 -20 -20 -20 -20
-20 -20 -20 -20 -20 -8 -20 -20 -20 -20 4 9 -9 8 11 -12 0 -20 -20 -20 -20 -20 -20 -20 -20 -20 -20 -20 -20 -20 -20 -20
-20 -20 -20 -20 -19 1 -12 -20 -20 -20 -20 6 8 -9 -18 -17 21 -3 -20 -20 -20 -20 -20 -20 -20 -20 -20 -20 -20 -20 -20 -20
-20 -20 -20 -7 -20 -20 -20 -20 -20 -20 -20 -4 7 5 4 9 -1 -18 -20 20 10 6 -8 -20 -20 -20 -20 -20 -20 -20 -20 -20
-12 -16 5 -7 -20 -11 -1 -19 -20 -18 8 9 9 9 -8 -2 5 -9 -20 -20 -20 -6 25 4 -20 -20 -20 -20 -20 -20 -20 -20
-20 -14 5 10 16 -4 6 -2 8 9 5 6 25 19 4 5 13 10 -15 -20 -20 -20 -18 -14 5 -11 -20 -20 -20 -20 -20 -20
-20 -20 -20 2 -5 -5 2 -1 3 10 -17 -20 3 29 29 25 20 11 6 -20 -20 -4 8 -20 -20 -15 7 -17 -20 -20 -10 -20
-20 -20 -20 -20 0 17 15 7 -20 -15 -4 8 8 -20 -10 30 0 22 0 -15 -20 -20 -12 4 -20 -20 -20 -1 12 -7 -8 -20
-20 -20 -20 -20 -20 -19 -16 10 0 5 8 -9 -4 7 -15 -20 -14 28 7 13 -13 -13 -6 -1 2 -20 -4 -20 -14 -20 -20 -20
-20 -20 -20 -20 -20 -20 -20 -20 -20 -20 -16 12 26 20 4 -8 -12 -19 17 6 -1 18 -12 6 4 -20 -15 -19 -20 -20 -20 -20
-20 -20 -20 -20 -20 -20 -20 -20 -20 -20 -20 -20 -20 -20 7 29 26 24 17 25 3 24 26 27 17 9 -11 -18 -20 -20 -20 -20
-20 -20 -20 -20 -20 -20 -20 -20 -20 -20 -20 -20 -20 -20 -20 -20 9 5 24 30 9 4 9 27 24 37 45 39 22 9 16 -13
-20 -20 -20 -20 -20 -20 -20 -20 -20 -20 -20 -20 -20 -20 -4 -6 8 9 17 21 17 25 25 13 24 34 39 30 43 29 16 25
-20 -20 -20 -20 -20 -20 -20 -20 -20 -20 -20 -20 -20 -11 -3 2 1 10 -2 -16 23 31 25 24 -11 10 10 22 35 46 44 34